Monroe, MI

11:24 AM EDT on October 19, 2017 (GMT -0400)
Custer

Weather History for KTTF - September, 2013

Change the Weather History Date:

Sunday, September 15, 2013

  Actual Average Record
Temperature  
Mean Temperature 58 °F -  
Max Temperature 69 °F 75 °F 102 °F (1939)
Min Temperature 46 °F 52 °F 37 °F (1985)
Degree Days  
Heating Degree Days 8    
Growing Degree Days 8 (Base 50)    
Moisture  
Dew Point 53 °F    
Average Humidity 81    
Maximum Humidity 100    
Minimum Humidity 53    
Precipitation  
Precipitation 0.00 in - - ()
Sea Level Pressure  
Sea Level Pressure 30.09 in    
Wind  
Wind Speed 3 mph (SW)    
Max Wind Speed 12 mph    
Max Gust Speed 17 mph    
Visibility 9 miles    
Events Rain    
Averages and records for this station are not official NWS values.
T = Trace of Precipitation, MM = Missing Value Source: NWS Daily Summary

Daily Weather History Graph

Daily Weather History Graph

Search for Another Location

Airport or City:

Trip Planner

Search our weather history database for the weather conditions in past years. The results will help you decide how hot, cold, wet, or windy it might be!

Date:

Astronomy

Sep. 15, 2013 Rise Set
Actual Time 7:14 AM EDT 7:42 PM EDT
Civil Twilight 6:46 AM EDT 8:10 PM EDT
Nautical Twilight 6:13 AM EDT 8:43 PM EDT
Astronomical Twilight 5:39 AM EDT 9:17 PM EDT
Moon 5:12 PM EDT (9/15) 2:47 AM EDT (9/15)
Length of Visible Light 13h 24m
Length of Day
12h 28m
Waxing Gibbous, 82% of the Moon is Illuminated
Sep 15
Waxing Gibbous
Sep 19
Full
Sep 26
Last Quarter
Oct 4
New
Oct 11
First Quarter

Hourly Weather History & Observations

Time (EDT) Temp. Dew Point Humidity Pressure Visibility Wind Dir Wind Speed Gust Speed Precip Events Conditions
12:15 AM 55.4 °F 51.8 °F 88% 30.10 in 10.0 mi South 3.5 mph - N/A   Clear
12:35 AM 55.4 °F 53.6 °F 94% 30.09 in 10.0 mi South 4.6 mph - N/A   Clear
12:56 AM 55.4 °F 53.6 °F 94% 30.09 in 10.0 mi South 3.5 mph - N/A   Clear
1:16 AM 55.4 °F 51.8 °F 88% 30.09 in 10.0 mi Calm Calm - N/A   Clear
1:36 AM 53.6 °F 51.8 °F 94% 30.09 in 10.0 mi South 3.5 mph - N/A   Clear
1:56 AM 53.6 °F 51.8 °F 94% 30.09 in 10.0 mi Calm Calm - N/A   Clear
2:16 AM 53.6 °F 51.8 °F 94% 30.09 in 10.0 mi South 3.5 mph - N/A   Clear
2:36 AM 51.8 °F 48.2 °F 88% 30.08 in 10.0 mi Calm Calm - N/A   Clear
2:56 AM 53.6 °F 51.8 °F 94% 30.08 in 10.0 mi Calm Calm - N/A   Clear
3:16 AM 51.8 °F 50.0 °F 94% 30.08 in 10.0 mi Calm Calm - N/A   Clear
3:36 AM 51.8 °F 51.8 °F 100% 30.08 in 10.0 mi Calm Calm - N/A   Clear
3:56 AM 51.8 °F 48.2 °F 88% 30.08 in 10.0 mi Calm Calm - N/A   Clear
4:17 AM 51.8 °F 50.0 °F 94% 30.09 in 10.0 mi Calm Calm - N/A   Clear
4:32 AM 50.0 °F 48.2 °F 94% 30.09 in 10.0 mi Calm Calm - N/A   Clear
4:52 AM 50.0 °F 48.2 °F 94% 30.09 in 10.0 mi Calm Calm - N/A   Clear
5:12 AM 48.2 °F 48.2 °F 100% 30.09 in 7.0 mi Calm Calm - N/A   Clear
5:32 AM 46.4 °F 46.4 °F 100% 30.09 in 5.0 mi Calm Calm - N/A   Clear
5:52 AM 48.2 °F 46.4 °F 93% 30.10 in 10.0 mi Calm Calm - N/A   Clear
6:12 AM 51.8 °F 48.2 °F 88% 30.10 in 10.0 mi SW 4.6 mph - N/A   Clear
6:32 AM 51.8 °F 48.2 °F 88% 30.11 in 10.0 mi Calm Calm - N/A   Clear
6:52 AM 51.8 °F 48.2 °F 88% 30.11 in 10.0 mi SW 4.6 mph - N/A   Clear
7:12 AM 50.0 °F 46.4 °F 87% 30.12 in 10.0 mi SW 4.6 mph - N/A   Clear
7:33 AM 51.8 °F 48.2 °F 88% 30.12 in 10.0 mi SW 3.5 mph - N/A   Clear
7:53 AM 51.8 °F 48.2 °F 88% 30.13 in 10.0 mi SSW 3.5 mph - N/A   Clear
8:13 AM 53.6 °F 48.2 °F 82% 30.13 in 10.0 mi SW 4.6 mph - N/A   Clear
8:33 AM 53.6 °F 48.2 °F 82% 30.13 in 10.0 mi SW 4.6 mph - N/A   Clear
8:53 AM 55.4 °F 50.0 °F 82% 30.12 in 10.0 mi SW 5.8 mph - N/A   Clear
9:13 AM 57.2 °F 51.8 °F 82% 30.12 in 10.0 mi SW 5.8 mph - N/A   Clear
9:33 AM 57.2 °F 51.8 °F 82% 30.11 in 10.0 mi SW 4.6 mph - N/A   Clear
9:53 AM 57.2 °F 51.8 °F 82% 30.12 in 10.0 mi SW 4.6 mph - N/A   Clear
10:13 AM 59.0 °F 51.8 °F 77% 30.11 in 10.0 mi SW 4.6 mph - N/A   Clear
10:34 AM 60.8 °F 51.8 °F 72% 30.10 in 10.0 mi SSW 6.9 mph - N/A   Clear
10:54 AM 62.6 °F 51.8 °F 68% 30.10 in 10.0 mi SSW 8.1 mph - N/A   Clear
11:14 AM 62.6 °F 51.8 °F 68% 30.10 in 10.0 mi SW 8.1 mph - N/A   Clear
11:34 AM 64.4 °F 51.8 °F 64% 30.10 in 10.0 mi SW 6.9 mph - N/A   Clear
11:54 AM 64.4 °F 53.6 °F 68% 30.09 in 10.0 mi SW 8.1 mph - N/A   Clear
12:14 PM 68.0 °F 53.6 °F 60% 30.08 in 10.0 mi SSW 8.1 mph - N/A   Clear
12:34 PM 69.8 °F 51.8 °F 53% 30.08 in 10.0 mi SSW 9.2 mph - N/A   Clear
12:54 PM 68.0 °F 51.8 °F 56% 30.07 in 10.0 mi SW 5.8 mph - N/A   Clear
1:14 PM 66.2 °F 51.8 °F 60% 30.07 in 10.0 mi SW 6.9 mph - N/A   Clear
1:35 PM 68.0 °F 51.8 °F 56% 30.07 in 10.0 mi SSW 5.8 mph - N/A   Scattered Clouds
1:55 PM 66.2 °F 51.8 °F 60% 30.08 in 10.0 mi WSW 6.9 mph - N/A   Scattered Clouds
2:15 PM 69.8 °F 51.8 °F 53% 30.07 in 10.0 mi SW 3.5 mph - N/A   Scattered Clouds
2:35 PM 68.0 °F 51.8 °F 56% 30.07 in 10.0 mi SW 3.5 mph - N/A   Scattered Clouds
2:55 PM 69.8 °F 51.8 °F 53% 30.07 in 10.0 mi SW 3.5 mph - N/A   Scattered Clouds
3:15 PM 69.8 °F 53.6 °F 56% 30.06 in 10.0 mi West 4.6 mph - N/A Rain Light Rain
3:35 PM 69.8 °F 53.6 °F 56% 30.05 in 10.0 mi Calm Calm - N/A   Scattered Clouds
3:55 PM 69.8 °F 53.6 °F 56% 30.05 in 10.0 mi Calm Calm - N/A   Mostly Cloudy
4:15 PM 68.0 °F 53.6 °F 60% 30.03 in 10.0 mi North 3.5 mph - N/A   Mostly Cloudy
4:36 PM 68.0 °F 53.6 °F 60% 30.04 in 10.0 mi Calm Calm - N/A   Mostly Cloudy
4:56 PM 66.2 °F 57.2 °F 73% 30.04 in 10.0 mi Calm Calm - N/A Rain Light Rain
5:16 PM 66.2 °F 55.4 °F 68% 30.04 in 10.0 mi NNE 4.6 mph - N/A Rain Light Rain
5:36 PM 64.4 °F 55.4 °F 73% 30.05 in 10.0 mi NNE 3.5 mph - N/A Rain Light Rain
5:56 PM 64.4 °F 59.0 °F 83% 30.06 in 10.0 mi Calm Calm - N/A Rain Light Rain
6:16 PM 64.4 °F 57.2 °F 77% 30.07 in 10.0 mi North 5.8 mph - N/A   Drizzle
6:36 PM 62.6 °F 57.2 °F 82% 30.09 in 10.0 mi North 11.5 mph 17.3 mph N/A Rain Rain
6:56 PM 60.8 °F 55.4 °F 82% 30.10 in 10.0 mi North 5.8 mph - N/A Rain Light Rain
7:17 PM 60.8 °F 57.2 °F 88% 30.11 in 7.0 mi North 8.1 mph - N/A Rain Rain
7:32 PM 59.0 °F 57.2 °F 94% 30.10 in 10.0 mi NNE 3.5 mph - N/A Rain Light Rain
7:52 PM 59.0 °F 57.2 °F 94% 30.09 in 10.0 mi Calm Calm - N/A Rain Light Rain
8:12 PM 59.0 °F 57.2 °F 94% 30.09 in 10.0 mi Calm Calm - N/A   Overcast
8:32 PM 59.0 °F 57.2 °F 94% 30.10 in 10.0 mi Calm Calm - N/A   Overcast
8:52 PM 59.0 °F 57.2 °F 94% 30.10 in 10.0 mi NNE 3.5 mph - N/A   Overcast
9:12 PM 59.0 °F 57.2 °F 94% 30.11 in 7.0 mi North 3.5 mph - N/A Rain Light Rain
9:32 PM 59.0 °F 57.2 °F 94% 30.11 in 7.0 mi Calm Calm - N/A   Light Drizzle
9:52 PM 59.0 °F 57.2 °F 94% 30.11 in 7.0 mi Calm Calm - N/A   Overcast
10:12 PM 59.0 °F 57.2 °F 94% 30.11 in 5.0 mi Calm Calm - N/A Rain Light Rain
10:33 PM 59.0 °F 57.2 °F 94% 30.11 in 5.0 mi Calm Calm - N/A Rain Light Rain
10:53 PM 59.0 °F 57.2 °F 94% 30.12 in 4.0 mi Calm Calm - N/A   Overcast
11:13 PM 59.0 °F 57.2 °F 94% 30.12 in 4.0 mi Calm Calm - N/A   Overcast
11:33 PM 59.0 °F 57.2 °F 94% 30.12 in 5.0 mi Calm Calm - N/A   Overcast
11:53 PM 59.0 °F 57.2 °F 94% 30.12 in 4.0 mi Calm Calm - N/A   Overcast